Location: Roquemaure
(44.0494°N, 4.7774°E)
Time: 21:00:10
(UTC+00:00)

Daily predictions for brighter satellites

Satellite Brightness Start Highest point End
(mag) Time Altitude Azimuth Time Altitude Azimuth Time Altitude Azimuth
Cosmos 1420 Rocket 4.1 19:54:06 10° SSW 19:59:21 87° WNW 20:04:41 10° NNE
Cosmos 1709 Rocket 4.1 19:54:37 10° N 20:00:54 86° E 20:07:12 10° S
MetOp-A 4.4 19:56:55 10° S 20:01:16 56° W 20:06:01 10° NNW
CARTOSAT-1 4.5 19:57:35 10° SE 20:01:27 33° ENE 20:05:20 10° N
Cosmos 1975 Rocket 3.3 19:58:09 10° SSW 20:02:36 76° W 20:07:01 10° N
Cosmos 676 Rocket 4.1 19:58:30 10° NNW 20:03:51 87° ENE 20:09:07 10° SSE
ATLAS 5 CENTAUR R/B 3.3 19:52:30 10° NW 20:06:09 79° SW 20:10:06 10° SSE
Tiangong 2.8 20:04:21 10° WSW 20:06:50 21° SSW 20:09:18 10° SSE
Cosmos 2315 Rocket 4.1 20:00:58 10° S 20:07:18 86° E 20:13:37 10° N
OBJECT-B 4.0 20:08:02 10° W 20:08:25 10° W 20:08:48 10° W
SPOT 3 Rocket 4.2 20:06:08 10° SE 20:10:58 41° ENE 20:15:50 10° N
Ariane Rocket 3.1 20:07:26 10° SSE 20:12:28 65° ENE 20:17:30 10° N
Cosmos 1954 Rocket 4.4 20:13:18 10° NNW 20:18:32 64° WSW 20:23:39 10° S
Cosmos 1544 Rocket 3.5 20:16:05 10° N 20:20:26 82° E 20:24:47 10° S
Lacrosse 5 rocket 3.2 20:18:38 10° WNW 20:21:32 20° SW 20:24:32 10° S
GEOS 3 Rocket 3.7 20:17:33 10° SSE 20:22:39 73° SW 20:27:47 10° NW
Cosmos 1656 3.7 20:17:24 10° NNW 20:22:53 73° ENE 20:28:14 11° SSE
ATLAS 2AS CENTAUR R/B 3.1 20:22:25 10° NW 20:29:19 61° WSW 20:35:47 10° SSE
MetOp-B 4.2 20:24:23 10° SSE 20:29:44 79° ENE 20:35:07 10° NNW
Cosmos 1850 Rocket 4.2 20:26:40 10° NNW 20:31:50 61° ENE 20:36:19 13° SE
USA 32 4.1 20:28:56 10° S 20:34:09 82° W 20:39:25 10° N
Cosmos 1980 Rocket 3.7 20:29:38 10° N 20:34:21 26° NE 20:39:01 10° ESE
Cosmos 1697 Rocket 3.3 20:29:31 10° NNW 20:34:55 45° ENE 20:39:32 14° SE
SL-8 R/B 3.8 20:32:01 10° WNW 20:36:51 80° NNE 20:41:22 12° ESE
Cosmos 1331 Rocket 4.3 20:31:55 10° S 20:36:57 47° ESE 20:42:02 10° NNE
SPOT 1/Viking Rocket 4.0 20:35:05 10° S 20:40:09 60° W 20:45:17 10° NNW
COSMOS 2406 3.8 20:37:03 10° S 20:42:15 36° ESE 20:47:28 10° NE
Spot 2 Rocket 3.9 20:38:47 14° SE 20:42:58 52° ENE 20:47:56 10° N
X-37B 0.2 20:42:05 10° W 20:44:54 83° N 20:47:01 16° E
Cosmos 2154 Rocket 4.3 20:39:14 10° N 20:45:17 50° ENE 20:50:11 16° SSE
CZ-2C R/B 4.3 20:44:50 10° NNE 20:49:02 36° E 20:51:58 17° SSE
SPOT 5 2.8 20:49:45 17° SSE 20:52:58 59° ENE 20:57:14 10° N
Cosmos 1703 3.1 20:51:20 10° S 20:55:10 86° E 20:59:03 10° N
Cosmos 2084 Rocket 4.2 20:53:39 10° NNW 20:57:20 39° NE 21:00:03 17° ESE
Cosmos 1452 Rocket 3.9 20:52:51 10° SSW 20:58:04 67° WNW 21:03:19 10° NNE
Cosmos 1833 Rocket 2.6 20:52:40 10° SSW 20:58:16 82° ESE 21:03:54 10° NNE
RESURS DK-1 2.4 20:54:24 10° NNW 20:58:33 77° WSW 21:01:19 20° SSE
Terra 2.2 20:56:28 19° SE 20:59:39 49° ENE 21:04:15 10° N
Delta 2 Rocket 4.3 20:57:23 10° SW 20:59:51 19° S 20:59:56 19° S
CZ-4B R/B 3.5 21:00:21 10° NNW 21:02:45 23° WNW 21:05:07 10° SW
Cosmos 967 Rocket 4.5 20:56:42 10° SSW 21:03:08 76° ESE 21:09:37 10° NE
Helios 1A Rocket 2.9 21:01:06 21° SSE 21:03:45 71° ENE 21:07:51 10° N
Cosmos 1110 Rocket 4.0 20:58:46 10° SSW 21:04:01 88° ESE 21:09:22 10° NNE
ERS-1 Rocket 3.0 21:02:33 19° SSE 21:06:10 73° ENE 21:11:12 10° N
Cosmos 1892 Rocket 4.4 21:04:14 22° SE 21:06:16 33° E 21:10:11 10° NNE
Resurs 01 Rocket 3.6 21:03:12 10° SSW 21:06:51 25° W 21:10:32 10° NW
Cosmos 1302 Rocket 4.4 21:03:52 17° SSE 21:07:24 42° ESE 21:12:16 10° NE
Cosmos 2228 2.9 21:08:15 10° N 21:12:30 85° W 21:15:16 21° S
Cosmos 2058 Rocket 4.3 21:09:32 10° NNE 21:13:25 29° ENE 21:15:19 21° ESE
Cosmos 1825 4.2 21:15:03 13° E 21:15:17 13° E 21:17:03 10° ENE
Cosmos 2184 Rocket 4.2 21:10:22 10° NNW 21:16:31 71° W 21:21:54 14° S
Cosmos 1408 3.6 21:16:14 25° ESE 21:16:46 26° E 21:19:43 10° NNE
Lacrosse 5 3.8 21:15:14 10° WNW 21:18:48 19° WSW 21:22:05 11° SSW
Cosmos 968 Rocket 3.9 21:18:40 10° NNW 21:23:46 53° ENE 21:26:36 25° SE
Cosmos 1900 4.4 21:18:43 10° NW 21:23:54 80° WSW 21:26:45 27° SSE
Cosmos 1328 3.7 21:22:06 24° S 21:24:25 78° E 21:28:26 10° N
USA 276 4.2 21:25:07 10° NW 21:27:44 25° N 21:30:20 10° ENE
Cosmos 2082 Rocket 2.2 21:27:22 15° S 21:32:03 65° ESE 21:37:43 10° NNE
Cosmos 2360 4.4 21:26:43 10° NNW 21:32:26 69° WSW 21:35:50 25° S
SJ 16-02 4.0 21:32:18 10° NE 21:32:37 10° NE 21:32:56 10° NE
Cosmos 1867 4.0 21:27:59 10° NNW 21:33:24 56° NE 21:36:30 25° ESE
ARIANE 5 R/B 2.6 21:35:43 31° SSE 21:37:49 85° ENE 21:42:16 10° NNW
USA 267 3.5 21:31:47 10° ENE 21:37:59 44° SE 21:44:11 10° SSW
Cosmos 1606 Rocket 3.8 21:36:55 10° NNW 21:41:13 65° W 21:43:23 28° S
GP-B 3.5 21:37:57 10° NNE 21:42:13 45° E 21:43:34 34° SE
Cosmos 2341 Rocket 4.1 21:37:23 10° N 21:43:41 66° E 21:47:01 29° SSE
SAR-Lupe-4 3.9 21:43:02 10° NNE 21:46:28 43° E 21:46:46 42° ESE
Cosmos 192 4.5 21:43:00 14° SSW 21:47:16 74° WNW 21:52:11 10° NNE
Okean 1-7 Rocket 3.9 21:58:40 40° SE 21:59:40 48° E 22:04:00 10° NNE
Cosmos 1892 2.5 22:02:06 52° S 22:02:58 88° WNW 22:06:45 10° N
SAR-Lupe-1 3.9 21:59:28 10° NNE 22:03:03 83° ESE 22:03:38 60° S
Cosmos 1726 Rocket 4.2 21:59:44 10° NNW 22:03:53 47° W 22:05:41 29° SSW
Cosmos 2181 Rocket 3.9 22:07:21 32° S 22:10:20 75° E 22:16:35 10° N
Cosmos 1633 3.9 22:12:09 26° ENE 22:12:09 26° ENE 22:14:38 10° NNE
USA 234 4.2 22:05:43 10° E 22:11:53 46° NNE 22:18:04 10° NW
Cosmos 1992 Rocket 3.9 22:15:19 37° S 22:17:25 78° ESE 22:22:40 10° NNE
Cosmos 1697 Rocket 4.1 22:13:56 10° NW 22:18:38 28° WSW 22:21:16 19° SW
Cosmos 1980 Rocket 2.5 22:13:09 10° NNW 22:18:43 56° WSW 22:20:52 35° S
SL-16 R/B 3.0 22:13:21 10° NNW 22:18:44 42° ENE 22:21:23 26° ESE
Cosmos 1486 Rocket 4.0 22:14:07 10° NNW 22:19:21 72° ENE 22:21:05 42° SE
Cosmos 1932 4.4 22:13:39 13° SW 22:19:21 85° NW 22:25:43 10° NNE
X-37B 3.0 22:17:44 10° W 22:18:13 13° W 22:18:13 13° W
Cosmos 1812 Rocket 4.3 22:17:05 10° N 22:21:19 40° ENE 22:22:08 37° ESE
Cosmos 2369 4.3 22:16:49 10° NW 22:22:17 47° WSW 22:24:30 31° SSW
ATLAS 5 CENTAUR R/B 1.3 22:29:23 47° WSW 22:30:20 73° NW 22:34:26 10° NE
Cosmos-2242 3.7 22:26:39 10° N 22:30:39 39° ENE 22:31:12 37° E
Cosmos 1602 Rocket 3.5 22:32:11 57° SE 22:32:38 61° E 22:36:55 10° NNE
In-Cosmos 22 Rocket 4.3 22:30:23 32° SSW 22:33:00 70° WNW 22:38:27 10° N
Cosmos 1869 3.1 22:30:54 10° N 22:34:48 78° W 22:35:09 70° SSW
Terra 3.8 22:35:21 14° SW 22:37:39 19° W 22:41:04 10° NW
Nadezhda 3 Rocket 4.3 22:36:22 37° SE 22:38:15 49° E 22:44:08 10° NNE
ERS-2 4.3 22:36:16 10° NE 22:37:40 15° ENE 22:37:40 15° ENE
ALOS 2 3.2 22:39:49 40° ESE 22:40:37 44° ENE 22:44:48 10° N
Meteor 1-27 4.3 22:35:11 10° NNW 22:40:43 69° W 22:42:35 42° SSW
FALCON 9 DEB 3.5 22:39:27 10° NW 22:42:17 58° NNW 22:42:17 58° NNW
ASTEX 1 4.4 22:38:46 10° N 22:43:29 42° WNW 22:45:49 26° SW
Cosmos 1354 Rocket 4.2 22:42:19 10° NNW 22:47:35 62° ENE 22:49:06 43° SE
BREEZE-M DEB (TANK) 4.4 22:45:17 10° WNW 22:48:36 57° NNE 23:01:08 10° E
ADEOS Rocket 3.7 22:45:43 33° SE 22:49:12 66° ENE 22:56:52 10° N
Cosmos 1825 3.0 22:49:40 39° WSW 22:50:12 41° WNW 22:53:47 10° N
Cosmos 2322 Rocket 2.6 22:48:42 10° NNW 22:54:19 57° ENE 22:56:24 36° ESE
Cosmos 1626 Rocket 4.2 22:54:43 39° WSW 22:55:46 48° WNW 23:00:00 10° N
Cosmos 1503 Rocket 3.9 22:52:03 10° NNW 22:57:23 90° SSE 22:58:35 55° SSE
USA 276 3.6 23:00:53 10° WNW 23:02:49 33° NW 23:02:49 33° NW
Cosmos 2278 4.4 22:59:37 10° NW 23:04:57 41° WSW 23:06:17 35° SW
MINOTAUR IV R/B 4.5 23:00:34 10° NNW 23:05:12 82° ENE 23:05:45 68° SE
Cosmos 1777 Rocket 4.3 23:00:10 10° NNW 23:05:24 58° ENE 23:06:53 42° ESE
Cosmos 1825 Rocket 3.5 23:08:18 62° ESE 23:08:25 63° E 23:12:43 10° NNE
Cosmos 2333 Rocket 3.6 23:04:14 10° N 23:09:24 32° NE 23:12:51 18° ESE
CENTAUR R/B 4.3 23:09:34 13° ESE 23:09:45 13° ESE 23:12:29 10° ENE
Gbstr 26 Del rocket 3.3 23:11:08 53° ESE 23:11:08 53° ESE 23:15:24 10° ENE
SJ 16-02 1.2 23:07:29 10° NNW 23:11:57 81° ENE 23:12:19 73° SE
Cosmos 1340 Rocket 3.5 23:13:04 42° ENE 23:13:04 42° ENE 23:16:27 10° NNE
Cosmos 2082 Rocket 4.3 23:12:08 10° WSW 23:16:37 23° NW 23:21:08 10° N
H-2A R/B 3.5 23:16:21 10° N 23:20:32 68° WNW 23:20:55 64° WSW
USA 267 3.7 23:14:42 10° NE 23:21:09 62° NNW 23:27:34 10° WSW
Cosmos 2058 2.8 23:26:08 86° SW 23:26:12 88° W 23:30:25 10° N
Cosmos 2221 3.3 23:23:40 10° N 23:27:47 40° ENE 23:28:17 38° E
Cosmos 1606 3.0 23:24:43 10° NNW 23:28:16 60° WNW 23:28:16 60° WNW
Cosmos 2360 Rocket 2.3 23:24:32 10° NNW 23:30:14 70° ENE 23:32:00 44° SE
Cosmos 1934 Rocket 3.9 23:25:07 10° N 23:31:14 76° E 23:33:06 47° SSE
Cosmos 1833 4.1 23:39:57 56° S 23:41:02 71° ESE 23:46:38 10° NNE
Cosmos 44 3.0 23:41:21 69° SE 23:41:23 69° ESE 23:45:51 10° NE
Meteor 2-2 Rocket 4.3 23:36:56 10° NNW 23:42:58 80° W 23:44:36 51° S
Cosmos 2237 4.3 23:40:13 10° NNW 23:45:51 60° WSW 23:46:53 51° SSW
Cosmos 1339 Rocket 4.4 23:50:04 49° S 23:51:55 90° W 23:58:05 10° N
